Regional Weather Roundup
Issued by NWS

Home | Current Version | Previous Version | Graphics & Text | Print | Product List | Glossary On
Versions: 1 2 3 4 5 6 7 8 9 10 11 12 13 14 15 16 17 18 19 20 21 22 23 24 25 26 27 28 29 30 31 32 33 34 35 36 37 38 39 40 41 42 43 44 45 46 47 48 49 50
000
ASUS43 KOAX 172010
RWRNE

WEATHER ROUNDUP FOR NEBRASKA
NATIONAL WEATHER SERVICE OMAHA NE
200 PM CST SUN DEC 17 2017

NOTES: SATELLITE DATA IS BEING USED TO AUGMENT CLOUD COVER ABOVE
       12000 FEET.
       "FAIR" INDICATES FEW OR NO CLOUDS BELOW 12,000 FEET WITH NO
       SIGNIFICANT WEATHER AND/OR OBSTRUCTIONS TO VISIBILITY.


NEZ001>004-019>022-054>056-172100-
NEBRASKA PANHANDLE

CITY           SKY/WX    TMP DP  RH WIND       PRES   REMARKS
SCOTTSBLUFF    MOSUNNY   44  26  49 W10G21    29.89F
ALLIANCE       SUNNY     42  26  53 SW10G17   29.88F
CHADRON        MOSUNNY   42  28  57 W10       29.88F
GORDON         MOCLDY    40  29  66 SW15      29.88F WCI  31
KIMBALL        SUNNY     39  27  60 W13       29.90F WCI  32
SIDNEY         MOSUNNY   41  28  60 VRB7      29.92F
$$

NEZ057>060-069>072-079>082-172100-
SOUTHWEST NEBRASKA

CITY           SKY/WX    TMP DP  RH WIND       PRES   REMARKS
NORTH PLATTE   CLOUDY    38  32  79 W3        29.97F
IMPERIAL       CLOUDY    41  30  65 W6        29.95F
LEXINGTON      CLOUDY    40  31  69 NW9       29.97F WCI  35
MCCOOK         CLOUDY    40  31  70 NW8       29.97F WCI  34
OGALLALA       CLOUDY    39  33  78 CALM      29.95F
$$

NEZ005>010-023>029-035>040-094-172100-
NORTH CENTRAL NEBRASKA

CITY           SKY/WX    TMP DP  RH WIND       PRES   REMARKS
VALENTINE      CLOUDY    40  29  64 SW8       29.94F WCI  34
AINSWORTH      CLOUDY    38  30  75 CALM      29.94F
BROKEN BOW     CLOUDY    38  30  73 N8        29.96F WCI  32
O`NEILL        PTSUNNY   40  29  64 CALM      29.97F
ORD            CLOUDY    39  29  67 N9        29.95F WCI  33
THEDFORD       CLOUDY    38  31  77 W3        29.95F
$$

NEZ041-046>049-061>064-073>077-083>087-172100-
SOUTH CENTRAL NEBRASKA

CITY           SKY/WX    TMP DP  RH WIND       PRES   REMARKS
GRAND ISLAND   SUNNY     42  31  64 N13       29.96F
AURORA         SUNNY     41  29  62 N12       29.95F
HASTINGS       SUNNY     42  29  59 N10       29.95F
HEBRON         SUNNY     42  32  67 N6        29.96F
HOLDREGE       PTSUNNY   40  32  73 NW10G16   29.97S WCI  34
KEARNEY        PTSUNNY   41  30  65 N13       29.97F
YORK           SUNNY     41  30  65 N10G17    29.95F
$$

NEZ011>018-030>034-042>045-172100-
NORTHEAST NEBRASKA

CITY           SKY/WX    TMP DP  RH WIND       PRES   REMARKS
NORFOLK        CLOUDY    38  30  73 NE9       29.95F WCI  31
ALBION         PTSUNNY   40  31  68 N8        29.96F WCI  35
BLAIR          PTSUNNY   33  28  81 N5        29.96S WCI  29
COLUMBUS       SUNNY     41  28  60 N6        29.96F
FREMONT        CLOUDY    32  28  83 NW6       29.98F WCI  26
TEKAMAH        CLOUDY    33  26  75 N9        29.97F WCI  25
WAYNE          CLOUDY    34  29  82 N7        29.97F WCI  28
$$

NEZ050>053-065>068-078-088>093-172100-
SOUTHEAST NEBRASKA

CITY           SKY/WX    TMP DP  RH WIND       PRES   REMARKS
LINCOLN        MOSUNNY   42  30  62 N8        29.97F
OMAHA EPPLEY   PTSUNNY   36  26  67 N9        29.97F WCI  29
BEATRICE       CLOUDY    40  36  84 N8        29.96F
FALLS CITY     CLOUDY    42  38  85 NW6       29.95F
NEBRASKA CITY  CLOUDY    35  35 100 N5        29.96F FOG     WCI  31
PLATTSMOUTH    CLOUDY    33  33  99 N3        29.97S FOG
$$

NEZ044-045-051>053-067-172100-
OMAHA AREA

CITY           SKY/WX    TMP DP  RH WIND       PRES   REMARKS
OMAHA EPPLEY   PTSUNNY   36  26  67 N9        29.97F WCI  29
BLAIR          PTSUNNY   33  28  81 N5        29.96S WCI  29
FREMONT        CLOUDY    32  28  83 NW6       29.98F WCI  26
MILLARD        MOSUNNY   38  30  71 NW6       29.97F WCI  34
OFFUTT AFB     MOSUNNY   37  29  74 NE6       29.96F WCI  32
PLATTSMOUTH    CLOUDY    33  33  99 N3        29.97S FOG
WAHOO          FAIR      37  27  69 N7        29.97S WCI  31
$$




USA.gov is the U.S. government's official web portal to all federal, state and local government web resources and services.